Precipitable_Water
0.14 0.14 0.14 0.14 0.12 0.12 0.12 0.12 0.12 0.12 0.12 0.12 0.12 0.12 0.12 0.12 0.12 0.12 0.12 0.12 0.12 0.12 0.12 0.12 0.12 0.14 0.14 0.14 0.14 0.14 0.14 0.14 0.14 0.14 0.14 0.14 0.14 0.14 0.14 0.14 0.14 0.14 0.14 0.14 0.14 0.16 0.16 0.20 0.20 0.22 0.22 0.22 0.24 0.26 0.30 0.32 0.32 0.34 0.34 0.36 0.36 0.38 0.38 0.38 0.38 0.38 0.38 0.38 0.40
0.14 0.14 0.12 0.12 0.12 0.12 0.12 0.12 0.12 0.12 0.12 0.12 0.12 0.12 0.12 0.12 0.12 0.12 0.12 0.12 0.12 0.12 0.12 0.12 0.14 0.14 0.14 0.14 0.14 0.14 0.14 0.14 0.14 0.14 0.14 0.14 0.14 0.14 0.14 0.14 0.14 0.14 0.14 0.14 0.14 0.16 0.16 0.18 0.18 0.20 0.20 0.22 0.22 0.24 0.26 0.32 0.32 0.34 0.34 0.36 0.36 0.36 0.38 0.36 0.38 0.38 0.38 0.38 0.40
0.14 0.12 0.12 0.12 0.12 0.12 0.12 0.12 0.12 0.12 0.12 0.12 0.12 0.12 0.12 0.12 0.12 0.12 0.12 0.12 0.12 0.12 0.12 0.12 0.12 0.14 0.14 0.14 0.14 0.14 0.14 0.14 0.14 0.14 0.14 0.14 0.14 0.14 0.14 0.14 0.14 0.14 0.14 0.14 0.14 0.16 0.16 0.16 0.18 0.20 0.20 0.20 0.22 0.24 0.26 0.32 0.34 0.34 0.34 0.34 0.36 0.36 0.36 0.36 0.38 0.38 0.38 0.40 0.40
0.12 0.12 0.12 0.12 0.12 0.10 0.10 0.10 0.10 0.10 0.12 0.12 0.12 0.12 0.12 0.12 0.12 0.12 0.12 0.12 0.12 0.12 0.12 0.12 0.12 0.14 0.14 0.14 0.14 0.14 0.14 0.14 0.14 0.14 0.14 0.14 0.14 0.14 0.14 0.14 0.14 0.14 0.14 0.14 0.14 0.16 0.16 0.16 0.18 0.18 0.20 0.20 0.22 0.24 0.26 0.28 0.32 0.34 0.34 0.34 0.36 0.36 0.36 0.36 0.38 0.38 0.38 0.40 0.40
0.12 0.12 0.12 0.12 0.10 0.10 0.10 0.10 0.10 0.10 0.12 0.12 0.12 0.12 0.12 0.12 0.12 0.12 0.12 0.12 0.12 0.12 0.12 0.12 0.14 0.14 0.14 0.14 0.14 0.14 0.14 0.14 0.14 0.14 0.14 0.14 0.14 0.14 0.14 0.14 0.14 0.14 0.14 0.14 0.16 0.16 0.16 0.16 0.18 0.18 0.20 0.22 0.22 0.24 0.26 0.28 0.32 0.32 0.34 0.34 0.34 0.36 0.36 0.36 0.38 0.38 0.40 0.40 0.40
0.12 0.12 0.12 0.10 0.10 0.10 0.10 0.12 0.12 0.12 0.12 0.12 0.12 0.12 0.12 0.12 0.12 0.12 0.12 0.12 0.12 0.12 0.12 0.14 0.14 0.14 0.14 0.14 0.14 0.14 0.14 0.14 0.14 0.14 0.14 0.14 0.14 0.14 0.14 0.14 0.14 0.14 0.16 0.16 0.16 0.16 0.16 0.16 0.16 0.18 0.20 0.22 0.24 0.26 0.28 0.28 0.30 0.32 0.32 0.32 0.34 0.34 0.36 0.36 0.38 0.40 0.40 0.40 0.38
0.12 0.12 0.12 0.10 0.10 0.10 0.10 0.12 0.12 0.12 0.12 0.12 0.12 0.12 0.12 0.12 0.12 0.12 0.12 0.12 0.12 0.12 0.12 0.14 0.14 0.14 0.14 0.14 0.14 0.14 0.14 0.14 0.14 0.14 0.14 0.14 0.14 0.14 0.14 0.14 0.16 0.16 0.16 0.16 0.16 0.16 0.16 0.16 0.18 0.18 0.20 0.22 0.24 0.26 0.26 0.28 0.30 0.30 0.30 0.32 0.34 0.34 0.36 0.36 0.38 0.38 0.38 0.38 0.38
0.12 0.12 0.12 0.12 0.12 0.12 0.12 0.12 0.12 0.12 0.12 0.12 0.12 0.12 0.12 0.12 0.12 0.12 0.12 0.12 0.12 0.12 0.12 0.12 0.14 0.14 0.14 0.14 0.14 0.14 0.14 0.14 0.14 0.14 0.14 0.14 0.14 0.14 0.14 0.14 0.16 0.16 0.16 0.16 0.16 0.16 0.16 0.16 0.18 0.20 0.20 0.22 0.24 0.26 0.26 0.28 0.28 0.30 0.30 0.32 0.32 0.34 0.36 0.36 0.38 0.38 0.38 0.38 0.38
0.12 0.12 0.12 0.12 0.12 0.12 0.12 0.12 0.12 0.12 0.12 0.12 0.12 0.12 0.12 0.12 0.12 0.12 0.12 0.12 0.12 0.12 0.12 0.12 0.14 0.14 0.14 0.14 0.14 0.14 0.14 0.14 0.14 0.14 0.14 0.14 0.14 0.14 0.14 0.14 0.14 0.16 0.16 0.16 0.16 0.16 0.16 0.18 0.20 0.20 0.22 0.22 0.24 0.26 0.26 0.28 0.28 0.28 0.28 0.30 0.32 0.34 0.36 0.36 0.38 0.38 0.38 0.38 0.38
0.12 0.12 0.12 0.12 0.12 0.12 0.12 0.12 0.12 0.12 0.12 0.12 0.12 0.12 0.12 0.12 0.12 0.12 0.14 0.14 0.14 0.14 0.12 0.14 0.14 0.14 0.14 0.14 0.14 0.14 0.14 0.14 0.14 0.14 0.14 0.14 0.14 0.14 0.14 0.14 0.14 0.16 0.16 0.16 0.16 0.16 0.18 0.20 0.20 0.22 0.22 0.24 0.24 0.24 0.26 0.26 0.28 0.28 0.28 0.30 0.30 0.32 0.34 0.36 0.38 0.38 0.38 0.38 0.38
0.12 0.12 0.12 0.12 0.12 0.12 0.12 0.12 0.12 0.12 0.12 0.12 0.14 0.14 0.14 0.14 0.14 0.14 0.14 0.14 0.14 0.14 0.14 0.14 0.14 0.14 0.14 0.14 0.14 0.14 0.16 0.16 0.14 0.14 0.14 0.14 0.14 0.14 0.14 0.14 0.14 0.16 0.14 0.14 0.14 0.16 0.18 0.20 0.20 0.22 0.22 0.24 0.24 0.24 0.26 0.26 0.26 0.26 0.28 0.28 0.30 0.32 0.34 0.36 0.36 0.38 0.38 0.38 0.38
0.12 0.12 0.12 0.12 0.14 0.14 0.14 0.14 0.14 0.14 0.14 0.14 0.14 0.14 0.14 0.14 0.14 0.14 0.14 0.14 0.14 0.14 0.14 0.14 0.14 0.14 0.14 0.14 0.14 0.16 0.16 0.16 0.14 0.14 0.14 0.14 0.14 0.14 0.14 0.14 0.14 0.14 0.14 0.14 0.16 0.16 0.18 0.22 0.22 0.22 0.24 0.24 0.24 0.26 0.26 0.26 0.26 0.26 0.28 0.28 0.30 0.30 0.32 0.34 0.36 0.36 0.38 0.38 0.38
0.12 0.12 0.12 0.14 0.14 0.14 0.14 0.14 0.14 0.14 0.14 0.14 0.14 0.14 0.14 0.14 0.16 0.16 0.14 0.14 0.14 0.14 0.14 0.14 0.14 0.14 0.14 0.14 0.16 0.16 0.16 0.16 0.16 0.14 0.14 0.14 0.14 0.14 0.14 0.16 0.14 0.14 0.14 0.14 0.16 0.18 0.20 0.22 0.22 0.24 0.24 0.24 0.24 0.26 0.26 0.26 0.26 0.26 0.26 0.28 0.28 0.30 0.30 0.32 0.34 0.36 0.36 0.36 0.36
0.14 0.14 0.14 0.14 0.14 0.14 0.14 0.14 0.14 0.14 0.14 0.14 0.14 0.16 0.16 0.16 0.16 0.16 0.16 0.16 0.14 0.14 0.14 0.14 0.14 0.14 0.14 0.14 0.16 0.16 0.16 0.16 0.16 0.16 0.16 0.16 0.16 0.16 0.16 0.16 0.14 0.14 0.14 0.16 0.18 0.20 0.22 0.22 0.24 0.24 0.24 0.24 0.24 0.26 0.26 0.26 0.26 0.26 0.26 0.28 0.28 0.30 0.30 0.32 0.34 0.36 0.36 0.36 0.36
0.14 0.14 0.14 0.14 0.14 0.14 0.14 0.14 0.14 0.14 0.14 0.16 0.16 0.16 0.16 0.16 0.16 0.16 0.16 0.16 0.16 0.16 0.16 0.14 0.14 0.14 0.16 0.16 0.16 0.16 0.16 0.16 0.16 0.16 0.16 0.16 0.16 0.16 0.16 0.16 0.16 0.14 0.16 0.18 0.20 0.22 0.22 0.24 0.24 0.24 0.24 0.24 0.24 0.26 0.26 0.26 0.28 0.28 0.28 0.28 0.28 0.30 0.32 0.34 0.34 0.36 0.36 0.36 0.36
0.14 0.14 0.14 0.14 0.14 0.14 0.14 0.14 0.14 0.14 0.16 0.16 0.16 0.16 0.16 0.16 0.16 0.16 0.16 0.16 0.16 0.16 0.16 0.16 0.16 0.16 0.16 0.16 0.16 0.16 0.16 0.16 0.16 0.16 0.16 0.16 0.16 0.16 0.16 0.16 0.16 0.16 0.16 0.20 0.22 0.22 0.24 0.24 0.24 0.24 0.24 0.24 0.26 0.26 0.26 0.28 0.28 0.28 0.28 0.28 0.30 0.30 0.32 0.34 0.34 0.36 0.36 0.36 0.36
0.14 0.14 0.14 0.14 0.14 0.14 0.14 0.14 0.14 0.16 0.16 0.16 0.16 0.16 0.16 0.18 0.18 0.18 0.18 0.18 0.16 0.16 0.16 0.16 0.16 0.16 0.16 0.14 0.16 0.16 0.16 0.16 0.16 0.16 0.16 0.16 0.16 0.16 0.16 0.16 0.16 0.16 0.16 0.22 0.22 0.24 0.24 0.24 0.24 0.26 0.26 0.26 0.26 0.26 0.28 0.28 0.28 0.28 0.28 0.28 0.30 0.32 0.34 0.34 0.34 0.36 0.36 0.36 0.36
0.14 0.14 0.14 0.14 0.14 0.14 0.14 0.14 0.16 0.16 0.16 0.16 0.16 0.16 0.18 0.18 0.18 0.18 0.18 0.18 0.18 0.18 0.16 0.16 0.16 0.16 0.16 0.16 0.16 0.16 0.16 0.16 0.16 0.16 0.16 0.16 0.16 0.16 0.16 0.16 0.16 0.16 0.16 0.22 0.22 0.24 0.24 0.24 0.24 0.26 0.26 0.26 0.26 0.28 0.28 0.28 0.28 0.28 0.30 0.30 0.30 0.32 0.32 0.34 0.34 0.36 0.36 0.36 0.36
0.14 0.14 0.14 0.14 0.14 0.14 0.14 0.16 0.16 0.16 0.16 0.16 0.16 0.18 0.18 0.18 0.18 0.18 0.18 0.18 0.18 0.18 0.18 0.18 0.18 0.16 0.16 0.16 0.16 0.16 0.16 0.16 0.16 0.16 0.16 0.16 0.16 0.16 0.16 0.16 0.16 0.16 0.18 0.22 0.22 0.24 0.24 0.24 0.26 0.26 0.26 0.28 0.28 0.28 0.28 0.28 0.28 0.30 0.30 0.30 0.30 0.32 0.32 0.34 0.34 0.36 0.36 0.36 0.36
0.14 0.14 0.14 0.16 0.16 0.16 0.16 0.16 0.16 0.16 0.16 0.16 0.16 0.18 0.18 0.18 0.18 0.18 0.18 0.18 0.18 0.18 0.18 0.18 0.18 0.18 0.16 0.16 0.16 0.16 0.16 0.16 0.16 0.16 0.16 0.16 0.16 0.16 0.16 0.16 0.16 0.16 0.18 0.22 0.22 0.24 0.24 0.26 0.26 0.26 0.26 0.28 0.28 0.28 0.28 0.28 0.28 0.30 0.30 0.30 0.30 0.30 0.32 0.32 0.34 0.34 0.36 0.36 0.36
0.14 0.16 0.16 0.16 0.16 0.16 0.16 0.16 0.16 0.16 0.16 0.16 0.16 0.16 0.18 0.18 0.18 0.18 0.18 0.18 0.18 0.18 0.18 0.18 0.18 0.18 0.18 0.16 0.16 0.14 0.14 0.16 0.16 0.16 0.16 0.16 0.16 0.16 0.16 0.16 0.16 0.18 0.20 0.22 0.22 0.24 0.24 0.26 0.26 0.26 0.28 0.30 0.30 0.30 0.30 0.28 0.28 0.28 0.28 0.28 0.30 0.30 0.32 0.32 0.32 0.34 0.34 0.36 0.36
0.16 0.16 0.16 0.16 0.16 0.16 0.16 0.16 0.16 0.16 0.16 0.16 0.16 0.16 0.16 0.18 0.18 0.18 0.18 0.18 0.18 0.18 0.18 0.18 0.18 0.18 0.18 0.18 0.16 0.14 0.14 0.14 0.14 0.14 0.14 0.14 0.16 0.16 0.16 0.16 0.16 0.18 0.20 0.22 0.22 0.24 0.24 0.26 0.26 0.28 0.28 0.30 0.30 0.30 0.28 0.28 0.28 0.28 0.28 0.28 0.30 0.30 0.30 0.32 0.32 0.34 0.34 0.36 0.36
0.16 0.16 0.16 0.16 0.16 0.16 0.16 0.16 0.16 0.16 0.16 0.16 0.16 0.16 0.16 0.16 0.16 0.16 0.16 0.16 0.18 0.18 0.18 0.18 0.18 0.18 0.18 0.18 0.16 0.14 0.14 0.14 0.14 0.14 0.14 0.14 0.16 0.16 0.16 0.18 0.18 0.18 0.20 0.22 0.22 0.24 0.24 0.26 0.28 0.30 0.30 0.30 0.30 0.28 0.28 0.28 0.28 0.26 0.26 0.28 0.28 0.28 0.30 0.30 0.32 0.34 0.34 0.36 0.36
0.16 0.16 0.16 0.16 0.16 0.16 0.16 0.16 0.16 0.14 0.16 0.16 0.16 0.16 0.16 0.16 0.16 0.16 0.16 0.16 0.16 0.16 0.18 0.18 0.18 0.18 0.18 0.18 0.16 0.14 0.14 0.12 0.12 0.14 0.14 0.14 0.14 0.16 0.16 0.18 0.18 0.18 0.20 0.22 0.24 0.24 0.26 0.26 0.28 0.30 0.30 0.28 0.28 0.28 0.28 0.28 0.26 0.26 0.26 0.28 0.28 0.28 0.28 0.30 0.32 0.34 0.34 0.34 0.34
0.16 0.16 0.16 0.16 0.14 0.14 0.14 0.14 0.14 0.14 0.14 0.16 0.16 0.16 0.16 0.16 0.16 0.16 0.16 0.16 0.16 0.16 0.16 0.16 0.16 0.18 0.18 0.18 0.16 0.14 0.14 0.12 0.12 0.14 0.14 0.14 0.14 0.16 0.16 0.18 0.18 0.20 0.20 0.22 0.24 0.26 0.28 0.28 0.30 0.30 0.30 0.26 0.26 0.26 0.26 0.26 0.26 0.28 0.28 0.28 0.28 0.28 0.28 0.28 0.30 0.32 0.34 0.34 0.34
0.14 0.14 0.14 0.14 0.14 0.14 0.14 0.14 0.14 0.14 0.14 0.16 0.16 0.14 0.14 0.16 0.16 0.16 0.16 0.14 0.16 0.16 0.16 0.16 0.16 0.16 0.16 0.16 0.16 0.14 0.12 0.12 0.12 0.14 0.14 0.14 0.14 0.16 0.16 0.18 0.18 0.20 0.20 0.22 0.24 0.26 0.28 0.30 0.32 0.32 0.30 0.26 0.26 0.26 0.26 0.26 0.28 0.30 0.30 0.30 0.28 0.26 0.26 0.28 0.30 0.30 0.32 0.32 0.32
0.14 0.14 0.14 0.14 0.14 0.14 0.14 0.14 0.14 0.14 0.14 0.14 0.14 0.14 0.14 0.14 0.14 0.14 0.14 0.14 0.14 0.14 0.14 0.16 0.16 0.16 0.16 0.16 0.16 0.14 0.14 0.12 0.14 0.14 0.14 0.14 0.16 0.16 0.16 0.18 0.18 0.20 0.22 0.24 0.26 0.28 0.28 0.32 0.32 0.30 0.28 0.26 0.26 0.26 0.28 0.28 0.30 0.30 0.30 0.30 0.26 0.26 0.26 0.26 0.28 0.30 0.30 0.30 0.32
0.14 0.14 0.14 0.14 0.14 0.14 0.14 0.14 0.14 0.14 0.14 0.14 0.14 0.14 0.14 0.14 0.14 0.14 0.14 0.14 0.14 0.14 0.14 0.14 0.16 0.16 0.16 0.16 0.14 0.14 0.14 0.12 0.14 0.14 0.14 0.16 0.16 0.16 0.16 0.18 0.18 0.18 0.20 0.24 0.26 0.28 0.30 0.32 0.32 0.30 0.28 0.26 0.26 0.28 0.28 0.30 0.30 0.30 0.30 0.28 0.26 0.24 0.24 0.26 0.26 0.28 0.28 0.30 0.30
0.14 0.14 0.14 0.14 0.14 0.14 0.14 0.14 0.14 0.14 0.14 0.14 0.14 0.14 0.14 0.14 0.14 0.14 0.14 0.14 0.14 0.14 0.14 0.14 0.16 0.16 0.14 0.14 0.14 0.14 0.14 0.14 0.14 0.14 0.14 0.16 0.16 0.16 0.16 0.18 0.18 0.18 0.20 0.24 0.26 0.28 0.30 0.32 0.32 0.30 0.28 0.28 0.28 0.28 0.28 0.30 0.30 0.30 0.28 0.26 0.24 0.24 0.24 0.26 0.26 0.26 0.28 0.28 0.28
0.14 0.14 0.14 0.14 0.14 0.14 0.14 0.14 0.14 0.14 0.14 0.14 0.14 0.14 0.14 0.14 0.14 0.14 0.14 0.14 0.14 0.14 0.14 0.16 0.16 0.14 0.14 0.14 0.14 0.14 0.14 0.14 0.14 0.16 0.16 0.16 0.16 0.16 0.16 0.18 0.18 0.18 0.20 0.22 0.26 0.30 0.32 0.32 0.32 0.32 0.30 0.28 0.28 0.28 0.28 0.30 0.30 0.28 0.26 0.24 0.24 0.24 0.24 0.24 0.26 0.26 0.26 0.28 0.28
0.14 0.14 0.14 0.14 0.14 0.14 0.14 0.14 0.14 0.14 0.14 0.14 0.14 0.14 0.14 0.14 0.14 0.14 0.14 0.14 0.14 0.14 0.16 0.16 0.14 0.14 0.14 0.14 0.14 0.14 0.14 0.14 0.14 0.16 0.16 0.16 0.16 0.16 0.16 0.18 0.18 0.18 0.20 0.22 0.24 0.28 0.32 0.32 0.32 0.32 0.30 0.30 0.28 0.28 0.28 0.30 0.30 0.28 0.26 0.26 0.26 0.24 0.24 0.24 0.26 0.26 0.26 0.28 0.28
0.14 0.14 0.12 0.12 0.12 0.12 0.14 0.14 0.14 0.14 0.14 0.14 0.14 0.14 0.14 0.14 0.14 0.14 0.14 0.14 0.14 0.14 0.14 0.14 0.14 0.14 0.14 0.14 0.14 0.14 0.14 0.14 0.14 0.16 0.16 0.16 0.16 0.16 0.18 0.18 0.18 0.18 0.20 0.24 0.26 0.28 0.30 0.30 0.32 0.32 0.32 0.30 0.28 0.28 0.28 0.30 0.30 0.30 0.30 0.30 0.28 0.26 0.26 0.26 0.26 0.26 0.26 0.28 0.28
0.12 0.12 0.12 0.12 0.12 0.12 0.12 0.14 0.14 0.14 0.14 0.14 0.14 0.14 0.14 0.14 0.14 0.14 0.14 0.14 0.14 0.14 0.14 0.14 0.14 0.14 0.14 0.14 0.14 0.14 0.14 0.14 0.14 0.16 0.16 0.16 0.16 0.16 0.18 0.18 0.18 0.18 0.20 0.24 0.26 0.28 0.30 0.30 0.30 0.30 0.30 0.30 0.28 0.28 0.28 0.30 0.30 0.30 0.30 0.30 0.28 0.28 0.28 0.26 0.26 0.26 0.26 0.26 0.26
0.12 0.12 0.12 0.12 0.12 0.12 0.12 0.12 0.14 0.14 0.14 0.14 0.14 0.14 0.14 0.14 0.14 0.14 0.14 0.14 0.14 0.14 0.14 0.14 0.14 0.14 0.14 0.16 0.16 0.14 0.14 0.14 0.16 0.16 0.16 0.16 0.16 0.18 0.18 0.18 0.18 0.18 0.20 0.24 0.26 0.28 0.28 0.30 0.28 0.30 0.30 0.30 0.30 0.28 0.28 0.30 0.30 0.30 0.28 0.28 0.28 0.28 0.28 0.28 0.28 0.26 0.26 0.26 0.26
0.12 0.12 0.12 0.12 0.12 0.12 0.12 0.12 0.14 0.14 0.14 0.12 0.12 0.14 0.14 0.14 0.14 0.14 0.14 0.14 0.14 0.14 0.14 0.14 0.14 0.14 0.16 0.16 0.16 0.14 0.14 0.14 0.16 0.16 0.16 0.16 0.16 0.18 0.18 0.18 0.18 0.18 0.20 0.24 0.26 0.28 0.28 0.28 0.28 0.28 0.28 0.28 0.28 0.28 0.28 0.28 0.28 0.28 0.28 0.26 0.26 0.26 0.26 0.26 0.26 0.26 0.28 0.26 0.26
0.12 0.12 0.12 0.12 0.12 0.12 0.12 0.12 0.14 0.14 0.12 0.12 0.14 0.14 0.14 0.14 0.14 0.14 0.14 0.16 0.14 0.14 0.14 0.14 0.14 0.14 0.14 0.14 0.14 0.14 0.14 0.14 0.16 0.16 0.16 0.16 0.16 0.18 0.18 0.18 0.18 0.18 0.20 0.24 0.26 0.28 0.28 0.28 0.26 0.26 0.26 0.28 0.28 0.28 0.28 0.28 0.26 0.26 0.26 0.24 0.24 0.24 0.24 0.24 0.24 0.26 0.26 0.26 0.26
0.12 0.12 0.12 0.12 0.12 0.12 0.12 0.14 0.14 0.14 0.14 0.14 0.14 0.14 0.14 0.14 0.14 0.14 0.14 0.14 0.14 0.14 0.14 0.14 0.14 0.14 0.14 0.14 0.14 0.14 0.14 0.14 0.16 0.16 0.16 0.16 0.16 0.18 0.18 0.18 0.18 0.18 0.20 0.24 0.26 0.26 0.26 0.28 0.26 0.24 0.24 0.24 0.26 0.26 0.28 0.26 0.24 0.24 0.24 0.22 0.22 0.22 0.22 0.22 0.22 0.24 0.24 0.24 0.26
0.12 0.12 0.14 0.12 0.12 0.12 0.12 0.14 0.14 0.14 0.14 0.14 0.14 0.14 0.14 0.14 0.14 0.14 0.14 0.14 0.14 0.14 0.14 0.14 0.14 0.14 0.16 0.16 0.16 0.14 0.14 0.14 0.16 0.16 0.16 0.16 0.16 0.16 0.18 0.18 0.18 0.18 0.20 0.24 0.26 0.26 0.26 0.28 0.26 0.24 0.24 0.22 0.24 0.24 0.26 0.24 0.24 0.22 0.22 0.22 0.22 0.22 0.22 0.20 0.22 0.22 0.22 0.22 0.24
0.14 0.14 0.14 0.14 0.14 0.14 0.14 0.14 0.14 0.14 0.14 0.14 0.14 0.14 0.14 0.14 0.14 0.14 0.14 0.14 0.14 0.14 0.14 0.14 0.14 0.14 0.16 0.16 0.16 0.14 0.14 0.14 0.14 0.16 0.16 0.16 0.16 0.18 0.18 0.18 0.18 0.18 0.20 0.24 0.24 0.26 0.26 0.26 0.26 0.24 0.24 0.22 0.22 0.22 0.24 0.22 0.22 0.22 0.22 0.22 0.22 0.22 0.20 0.20 0.20 0.20 0.22 0.22 0.24
0.14 0.14 0.14 0.14 0.14 0.14 0.14 0.14 0.14 0.14 0.14 0.14 0.14 0.14 0.14 0.14 0.14 0.14 0.14 0.14 0.14 0.14 0.14 0.14 0.14 0.16 0.16 0.16 0.16 0.16 0.14 0.14 0.14 0.16 0.16 0.16 0.16 0.18 0.18 0.16 0.18 0.18 0.20 0.24 0.24 0.24 0.24 0.26 0.26 0.24 0.24 0.22 0.20 0.22 0.22 0.22 0.22 0.22 0.22 0.22 0.22 0.22 0.20 0.20 0.20 0.20 0.20 0.20 0.22
0.14 0.14 0.14 0.14 0.14 0.14 0.14 0.14 0.14 0.14 0.16 0.14 0.14 0.14 0.14 0.14 0.14 0.14 0.14 0.14 0.14 0.14 0.14 0.14 0.16 0.16 0.16 0.18 0.18 0.16 0.14 0.14 0.14 0.16 0.16 0.16 0.16 0.16 0.16 0.16 0.16 0.18 0.20 0.22 0.22 0.22 0.22 0.24 0.24 0.24 0.24 0.22 0.20 0.20 0.20 0.20 0.20 0.20 0.20 0.20 0.20 0.20 0.20 0.20 0.20 0.20 0.20 0.20 0.20
Wind_Speed
41 40 40 40 39 39 38 37 37 36 35 35 34 34 33 33 33 33 33 33 33 33 33 33 33 33 33 34 33 33 33 32 32 32 31 31 30 30 29 29 28 28 28 27 27 27 27 27 27 26 26 26 26 26 25 25 25 25 25 25 25 25 25 25 25 25 25 24 24
41 41 40 40 39 39 38 37 36 36 35 35 34 34 33 33 33 33 33 33 33 33 33 33 33 33 33 33 33 33 33 32 32 32 31 30 30 29 29 28 28 28 27 27 27 27 26 26 26 26 25 25 25 25 25 25 24 24 25 25 25 24 24 24 24 24 24 24 24
41 40 40 39 39 38 37 36 36 35 35 34 34 34 33 33 33 33 33 33 34 34 33 33 33 33 33 33 33 33 33 32 32 31 31 30 30 29 29 28 28 27 27 27 26 26 26 26 26 25 25 25 25 25 25 24 24 24 24 24 24 24 24 23 23 23 23 23 24
40 40 39 39 38 38 37 36 35 35 35 34 34 34 33 33 33 33 34 34 34 34 33 33 33 33 33 33 33 33 33 32 32 31 31 30 29 29 28 28 27 27 26 26 26 26 26 26 25 25 25 25 25 25 24 24 24 24 24 24 24 23 23 23 23 23 23 23 23
40 40 39 38 38 37 36 36 35 35 35 34 34 34 34 34 34 34 34 34 33 33 33 33 33 33 33 33 33 33 33 32 32 31 30 30 29 29 28 27 27 27 26 26 25 25 25 25 25 24 24 24 24 24 24 24 24 24 24 23 23 22 22 22 22 22 23 23 23
40 39 39 38 37 37 36 36 35 35 35 35 34 34 34 34 34 34 34 34 34 34 34 34 33 33 33 33 33 33 32 32 32 31 31 30 29 29 28 28 27 27 26 26 25 25 25 25 24 24 24 23 23 24 24 24 24 24 24 23 23 22 21 21 21 22 22 22 23
39 39 38 38 37 37 36 36 36 36 35 35 34 34 34 34 34 34 34 34 34 34 34 33 33 33 33 33 33 32 32 32 31 31 31 30 29 29 28 28 27 27 26 26 25 25 24 24 24 23 23 23 23 23 23 24 24 24 23 23 22 21 21 21 21 21 21 22 22
39 38 38 37 37 36 36 36 36 35 35 34 34 34 34 34 34 34 34 34 34 34 34 33 33 33 33 33 32 32 32 32 31 31 31 30 29 29 28 28 27 27 26 26 25 25 24 23 23 23 23 22 22 23 23 23 23 24 24 23 22 21 21 20 20 20 21 21 21
38 38 38 37 37 36 36 36 36 35 35 34 34 34 35 35 35 34 34 34 34 34 34 34 34 34 33 33 33 32 32 31 31 31 30 30 30 29 28 28 27 27 27 26 25 24 24 23 22 22 22 22 22 22 23 23 23 23 23 23 22 22 21 21 20 20 20 20 20
38 38 37 37 37 37 37 36 36 36 35 35 35 35 35 35 35 35 34 34 34 34 34 34 34 34 33 33 33 32 32 32 31 31 30 30 30 29 29 28 27 27 27 26 25 24 23 22 22 22 22 22 22 22 22 23 23 23 23 23 22 22 21 21 20 20 20 20 20
38 37 37 37 37 37 37 36 36 36 35 35 35 35 35 35 35 35 35 35 35 34 34 34 34 34 33 33 33 33 32 32 31 31 30 30 30 29 29 28 28 27 27 26 25 23 22 22 21 21 21 21 21 22 22 22 22 23 23 23 23 22 22 21 20 20 19 19 19
37 37 37 37 37 37 37 36 36 35 35 35 35 35 35 35 35 36 36 35 35 35 35 35 34 34 34 33 33 33 33 32 32 31 31 30 30 29 29 28 28 27 26 25 24 22 21 21 20 20 20 21 21 21 21 22 22 22 22 23 23 22 22 21 21 20 19 19 18
37 37 37 37 37 37 37 36 36 36 36 35 36 36 36 36 36 36 36 36 36 35 35 35 35 34 34 34 34 33 33 32 32 31 31 30 30 29 29 28 28 27 26 24 23 21 20 20 19 19 19 20 20 21 21 21 21 21 22 22 22 22 22 21 21 20 19 18 18
37 37 37 37 37 37 37 37 36 36 36 36 36 36 37 37 37 37 37 36 36 36 36 35 35 35 35 34 34 34 33 33 32 32 31 30 30 29 29 28 28 27 25 23 21 20 19 18 18 18 18 19 19 20 21 21 20 20 21 21 22 22 22 21 21 20 19 18 17
37 37 37 37 37 37 37 37 37 37 37 37 37 37 37 37 37 38 38 37 37 37 36 36 35 35 35 35 34 34 33 33 32 32 31 31 30 29 29 29 28 26 24 22 20 19 18 18 18 18 18 18 18 19 20 20 20 20 20 21 21 21 21 21 20 19 19 18 17
37 37 37 37 37 38 38 38 37 37 37 37 38 38 38 38 38 38 38 38 38 37 37 36 36 36 35 35 35 34 34 33 32 32 31 31 30 30 29 29 28 25 23 21 19 19 18 18 18 18 18 18 18 18 19 19 19 19 19 20 20 21 20 20 19 19 18 17 17
37 37 38 38 38 38 38 38 38 38 38 38 38 38 38 38 38 38 39 38 38 38 37 37 36 36 36 35 35 34 34 33 32 32 31 31 30 30 29 29 27 25 22 20 19 18 18 18 18 19 19 19 19 19 19 19 19 18 18 19 19 19 19 18 18 17 17 17 16
38 38 38 38 38 39 39 39 39 39 39 39 39 39 39 39 39 39 39 39 39 38 38 37 37 36 36 35 35 34 34 33 32 32 31 31 30 30 29 28 26 24 21 19 18 18 18 18 20 20 20 20 20 19 19 19 18 18 17 17 17 17 17 16 16 16 16 16 16
38 38 39 39 39 39 39 39 39 39 39 39 39 39 39 39 39 39 40 40 39 39 38 38 38 37 36 36 35 35 34 33 32 32 31 31 30 29 29 28 26 23 20 19 18 17 18 20 21 22 22 21 20 19 19 18 17 16 16 16 15 15 15 15 15 14 15 15 15
38 39 39 39 39 40 40 40 40 40 40 40 40 40 40 40 40 40 40 40 40 40 39 39 38 38 37 36 36 35 34 33 33 32 31 30 29 29 28 27 25 22 19 18 18 18 20 22 22 22 22 21 20 19 17 16 15 14 14 14 14 14 13 13 13 13 13 13 14
39 39 39 39 40 40 40 40 40 40 40 40 40 40 40 41 41 41 41 41 40 40 40 39 39 38 38 37 36 35 34 33 32 31 30 29 29 28 27 26 24 21 19 18 18 20 21 22 22 22 21 20 18 16 14 13 13 13 12 13 13 13 12 12 12 12 12 12 12
39 39 40 40 40 40 40 40 40 40 41 41 41 41 41 41 41 42 42 41 41 40 40 40 39 39 38 37 37 36 34 33 32 31 29 28 27 26 26 25 22 20 18 17 18 20 22 22 22 22 20 17 14 11 10 11 11 11 11 12 12 11 11 11 11 11 11 11 11
40 40 40 40 40 40 40 40 41 41 41 41 41 41 42 42 42 43 43 42 42 41 40 40 39 39 38 38 37 35 34 33 31 29 28 27 25 25 24 23 21 19 18 17 18 20 22 22 22 21 18 13 9 8 8 9 10 10 11 11 11 11 10 10 10 10 10 10 10
40 40 40 40 40 40 41 41 41 41 41 42 42 42 42 43 43 43 43 43 42 41 41 40 40 39 39 38 36 35 33 32 30 28 26 25 23 22 22 21 20 18 17 16 18 20 22 22 22 19 13 9 7 6 7 8 9 10 10 10 10 10 10 10 10 9 9 9 9
41 41 40 40 40 41 41 41 41 42 42 42 42 43 43 43 43 43 43 43 42 42 41 40 40 39 38 37 35 34 32 30 28 26 25 23 21 20 19 18 18 17 16 15 18 21 24 25 22 16 10 7 6 6 7 8 9 9 9 9 9 9 9 9 9 8 8 8 8
41 41 41 41 41 41 41 42 42 42 42 43 43 43 43 44 44 44 43 43 43 42 41 41 40 39 37 36 34 32 30 28 26 24 22 20 19 17 16 16 16 15 15 15 18 21 25 26 20 12 8 7 6 6 7 7 8 8 9 9 9 8 8 8 8 7 7 7 7
41 41 41 41 41 42 42 42 42 42 43 43 43 44 44 44 44 44 43 43 43 42 42 41 39 38 36 34 32 30 28 26 24 21 19 18 16 15 14 14 14 13 13 15 18 21 24 26 16 9 6 6 6 6 6 6 7 7 7 8 8 8 7 7 7 6 6 6 6
41 41 41 42 42 42 42 42 42 43 43 43 43 44 44 44 44 44 43 43 43 42 42 41 39 37 35 32 30 28 26 23 21 19 17 15 13 12 12 12 12 12 12 14 17 20 24 24 12 6 5 5 5 5 5 5 5 6 6 6 6 7 7 7 6 6 5 5 5
41 41 41 42 42 42 42 42 43 43 43 43 43 44 44 44 44 44 43 43 43 43 42 40 38 35 33 30 28 26 23 21 19 16 14 13 11 11 10 11 11 11 12 14 16 20 24 21 10 5 4 4 5 4 4 4 4 5 5 5 5 6 6 6 6 5 5 5 4
41 41 41 42 42 42 42 42 43 43 43 43 43 44 44 44 44 44 44 44 44 43 41 39 37 34 31 29 26 24 21 19 16 14 12 11 10 9 9 10 10 10 10 13 15 20 23 18 9 4 4 4 4 3 3 3 3 4 4 4 5 5 6 6 5 5 4 4 4
41 41 41 41 42 42 42 42 43 43 43 43 43 43 43 44 44 44 44 44 44 42 41 38 35 32 30 27 24 22 19 17 14 12 11 10 9 8 9 9 9 9 9 11 14 19 21 17 10 5 4 4 4 3 2 1 2 2 3 3 4 4 5 5 5 4 4 4 3
41 41 41 41 41 42 42 42 43 43 43 43 43 43 43 44 44 44 45 44 43 42 39 37 34 31 28 26 23 21 18 15 13 11 10 9 8 7 8 8 8 8 9 10 14 18 20 17 11 6 4 4 3 3 3 2 1 1 2 3 3 3 4 4 4 4 3 3 3
41 41 41 41 41 42 42 42 43 43 43 43 43 43 43 44 44 45 45 44 43 41 38 35 32 29 27 25 22 20 17 14 12 10 9 8 7 7 7 7 7 8 9 10 14 17 18 15 12 8 5 3 3 3 3 3 2 2 3 4 5 5 4 4 4 3 3 2 2
40 41 41 41 41 42 42 43 43 43 43 43 43 43 44 44 45 45 45 44 42 39 36 33 31 28 26 24 21 19 16 13 11 10 9 8 7 6 6 6 6 7 9 10 12 16 17 14 11 9 6 4 4 4 4 3 2 1 3 5 7 6 5 4 3 2 2 1 1
40 40 41 41 41 42 42 43 43 44 44 43 43 43 44 44 45 45 44 43 41 38 35 32 30 27 25 23 20 18 15 13 11 10 9 8 6 6 5 6 6 7 9 9 11 14 16 14 11 9 7 5 4 4 4 4 2 1 3 5 6 6 5 3 2 1 1 1 1
40 40 41 41 42 42 43 43 44 44 44 44 43 43 44 44 44 44 44 42 39 36 33 31 29 28 26 23 21 18 15 13 11 10 9 8 6 5 5 6 6 7 8 9 10 13 15 15 11 9 7 5 4 4 3 3 2 1 2 4 5 5 4 2 1 1 1 0 1
40 40 41 41 42 42 43 44 44 44 44 43 43 43 44 44 44 44 43 41 38 35 32 30 29 28 26 24 21 18 15 13 11 9 9 8 6 6 5 6 6 7 8 9 9 12 14 14 11 8 7 6 5 4 3 2 2 1 0 2 3 3 3 2 1 1 0 0 1
40 40 41 41 42 43 43 44 44 44 44 43 43 43 43 44 44 44 43 41 37 34 31 29 28 27 26 25 22 19 16 13 11 9 9 8 7 6 6 7 7 7 8 9 9 10 12 13 11 8 6 5 4 4 3 2 2 2 2 1 1 1 1 1 1 1 1 1 2
40 40 41 41 42 43 43 44 44 44 43 43 42 42 43 43 43 43 43 41 37 33 30 28 27 26 26 24 22 20 16 13 11 9 9 8 7 7 7 7 7 8 8 9 9 9 10 11 10 8 5 4 4 4 4 4 4 4 4 3 2 1 1 1 1 2 2 2 3
40 41 41 41 42 43 43 44 44 43 43 42 42 42 42 42 43 43 42 40 37 33 30 27 26 26 25 24 22 19 16 13 11 9 9 8 8 8 8 8 8 8 9 9 9 9 9 9 10 8 6 4 4 4 5 5 5 5 5 5 4 3 2 2 2 3 4 4 4
40 41 41 41 42 42 43 43 43 43 43 42 42 42 41 42 42 42 42 40 37 34 30 27 26 26 25 24 21 19 16 13 11 10 9 8 8 8 8 8 8 9 9 10 10 10 9 10 10 9 7 6 6 5 6 6 6 6 6 6 5 4 3 3 3 4 5 5 6
Wind_Direction
333 333 333 332 332 332 331 331 331 331 331 330 330 330 329 329 329 328 327 327 326 325 325 324 323 323 322 321 320 319 317 316 315 313 311 309 307 306 305 303 302 300 298 296 293 291 289 287 285 282 279 277 274 272 269 268 268 269 271 272 272 272 272 272 271 271 270 271 270
333 333 333 333 333 333 332 332 332 332 331 331 331 330 330 329 329 328 327 327 326 325 325 324 324 324 323 322 322 321 319 318 316 315 313 311 309 307 306 304 302 300 298 296 294 292 290 288 286 283 280 278 275 273 270 268 268 269 270 271 272 272 272 272 271 271 271 271 271
334 334 334 334 334 333 333 333 333 332 332 332 331 331 330 330 329 328 328 327 326 326 325 325 324 324 324 324 323 322 321 320 318 316 314 312 311 309 307 305 303 301 299 297 295 293 291 289 287 284 281 279 276 273 271 268 268 268 269 271 271 271 271 270 270 271 271 271 271
335 335 335 334 334 334 334 334 333 333 333 332 331 331 331 330 329 329 328 327 326 326 326 325 325 325 324 324 324 324 323 321 320 318 316 314 312 310 308 306 304 302 300 298 296 294 292 290 287 284 282 280 277 274 271 269 268 268 268 269 270 270 270 269 270 270 271 271 270
335 335 335 335 335 335 335 334 334 333 333 332 332 332 331 331 330 329 328 328 327 327 326 326 325 325 325 325 325 325 324 323 321 319 317 315 313 312 310 308 306 304 301 299 297 295 292 290 287 285 282 280 277 274 272 270 268 268 268 268 268 268 268 269 270 271 271 270 270
336 336 336 336 336 336 335 335 334 334 333 333 332 332 332 331 330 330 329 328 328 327 327 326 326 325 325 325 325 325 325 324 322 321 319 317 315 313 311 309 307 305 303 300 298 295 293 291 288 285 283 280 278 275 272 270 269 268 267 267 267 267 268 269 270 270 270 270 270
336 336 336 336 336 336 336 335 335 334 334 333 333 332 332 331 331 330 329 329 328 328 327 327 326 326 326 326 325 325 325 324 323 322 320 318 316 314 312 310 308 306 304 301 298 296 293 290 288 285 283 281 278 275 273 271 269 268 267 267 266 266 267 269 269 270 270 271 271
337 337 337 337 337 337 336 336 335 335 334 334 333 333 332 332 331 331 330 330 329 329 328 328 327 327 326 326 325 325 325 324 324 323 321 320 317 315 313 311 309 307 304 301 299 296 293 290 288 285 283 281 278 275 273 271 270 268 267 266 266 266 267 268 269 269 270 271 271
338 338 338 337 337 337 337 336 335 335 334 334 334 333 333 332 332 332 331 331 330 329 329 328 328 327 327 326 325 325 325 324 324 323 322 321 319 317 315 312 310 308 305 302 299 296 294 290 288 285 283 281 278 276 274 272 270 268 267 265 265 266 267 268 269 269 270 270 270
338 338 338 338 338 337 337 336 336 335 335 334 334 334 333 333 333 332 332 331 330 329 329 329 328 328 327 326 326 325 325 324 324 323 323 322 320 318 316 313 311 309 306 303 300 297 294 291 289 286 284 281 279 276 274 273 271 269 266 264 265 267 268 269 268 268 269 269 269
339 338 338 338 338 337 337 336 336 335 335 335 334 334 334 334 333 332 332 331 330 330 329 329 328 328 327 327 326 326 325 325 324 323 323 322 321 319 317 315 313 310 307 304 300 297 294 292 291 289 286 282 278 276 275 273 272 269 266 264 265 267 268 268 268 267 267 267 268
339 339 338 338 338 337 337 337 336 336 335 335 335 335 334 334 333 333 332 331 331 330 330 329 329 328 327 327 326 326 325 325 324 323 322 321 321 320 318 317 314 311 308 304 301 298 296 295 293 290 286 282 279 276 275 275 273 270 267 265 265 266 267 267 266 266 265 266 267
339 339 338 338 338 337 337 337 336 336 335 335 335 335 334 334 333 333 332 332 331 331 330 329 329 328 327 327 326 326 325 325 324 323 322 321 321 320 319 318 316 313 309 305 301 299 298 297 294 291 287 283 279 278 277 277 275 272 268 265 265 265 265 265 264 264 264 265 266
339 338 338 338 337 337 337 336 336 336 335 335 335 334 334 334 333 333 332 332 331 331 330 329 329 328 327 326 326 325 325 324 324 323 322 321 320 320 320 319 317 314 310 305 302 301 299 297 294 291 288 284 281 280 280 279 276 272 268 266 265 264 263 262 262 263 263 264 265
339 338 338 337 337 337 337 336 336 336 335 335 335 334 334 334 333 333 332 332 331 330 330 329 328 328 327 326 325 325 324 324 323 322 322 321 320 320 320 320 318 315 311 306 304 302 299 296 294 291 288 286 283 282 281 280 276 271 268 266 265 263 262 260 260 261 262 263 264
338 338 338 337 337 337 336 336 336 336 335 335 335 334 334 333 333 332 332 331 331 330 329 329 328 327 326 326 325 324 324 323 323 322 321 321 320 320 320 320 319 316 312 308 304 301 298 296 293 290 288 286 284 282 280 279 274 269 266 265 264 262 260 259 259 260 260 261 262
338 338 337 337 337 337 336 336 336 336 336 335 335 334 334 333 333 332 331 331 330 329 329 328 327 326 326 325 324 324 323 322 322 321 321 320 319 319 319 320 319 316 312 309 305 302 298 296 293 291 288 286 284 281 279 276 272 267 264 262 261 259 258 258 258 259 260 260 261
338 338 337 337 337 337 336 336 336 336 336 335 335 334 334 333 332 331 331 330 329 328 327 327 326 325 325 324 324 323 322 322 321 321 320 319 318 318 318 319 318 315 312 309 307 303 301 299 297 294 291 287 284 281 277 273 269 264 261 259 258 256 256 257 258 259 260 260 260
338 338 338 338 337 337 337 337 337 336 336 335 335 334 334 333 332 331 330 329 328 327 326 325 325 324 324 323 323 322 322 321 320 320 319 318 317 317 317 318 317 314 311 309 309 308 306 304 302 298 295 290 287 282 276 270 265 261 258 256 254 254 255 256 258 259 259 259 258
339 339 338 338 338 338 338 337 337 336 336 336 335 334 333 332 331 330 330 329 328 327 325 324 324 323 323 322 322 321 321 320 319 319 318 317 316 316 316 317 316 312 308 308 311 313 311 308 304 302 299 294 289 282 273 265 260 256 254 253 253 253 254 256 258 259 259 258 258
340 339 339 339 339 338 338 338 337 337 336 336 335 334 333 332 331 330 330 328 327 326 325 324 323 322 322 321 321 320 320 319 319 318 317 316 316 315 316 316 314 309 305 305 311 314 313 310 307 304 302 297 291 280 267 257 253 251 251 252 252 253 254 255 257 258 259 259 258
341 340 340 340 340 339 339 338 338 338 337 336 335 334 333 332 331 331 330 329 328 326 325 323 322 321 321 320 320 319 319 318 318 317 316 316 315 315 316 316 313 307 302 302 309 314 315 312 310 308 304 299 291 276 258 248 246 246 248 249 250 251 252 253 255 257 258 259 259
342 341 341 341 341 340 340 339 339 338 337 336 335 334 333 333 332 331 330 330 328 327 325 324 322 321 320 320 319 318 318 317 317 316 316 315 315 315 316 315 313 307 301 301 308 315 317 315 314 311 306 299 289 269 251 243 241 241 242 244 246 248 249 251 253 255 257 258 259
342 342 342 342 341 341 341 340 339 338 337 336 335 335 334 333 333 332 331 330 329 328 326 324 323 322 321 320 319 318 318 317 316 316 315 315 315 315 316 315 312 307 301 301 310 317 319 319 318 313 304 294 282 264 248 240 236 235 236 238 241 244 246 248 250 253 255 258 259
343 343 343 343 342 342 341 341 340 339 338 337 336 335 335 334 334 333 332 332 331 329 328 326 324 323 321 320 319 318 318 317 316 315 315 315 316 316 317 316 313 308 303 303 313 319 322 323 320 312 296 287 275 259 246 238 234 232 232 233 236 240 242 245 247 250 253 256 259
344 344 343 343 343 342 342 341 340 339 338 337 337 336 336 336 335 334 334 333 332 331 330 328 326 324 323 321 320 319 318 317 316 316 316 316 317 318 318 317 315 310 307 308 317 322 326 329 325 314 292 284 269 256 245 238 233 230 230 230 233 236 238 240 242 245 249 253 257
344 344 344 344 343 343 342 341 340 340 339 339 338 338 338 337 337 336 335 335 334 333 331 330 328 326 325 323 322 321 319 318 317 317 317 318 318 319 320 321 319 315 313 316 321 324 330 336 331 317 299 286 269 257 248 240 233 229 227 227 230 232 234 234 236 239 242 246 252
345 345 344 344 344 343 343 342 341 341 340 340 340 340 339 339 338 338 337 336 336 334 333 332 330 329 328 326 324 323 321 320 319 319 319 320 320 321 323 326 325 322 320 323 325 330 336 342 337 323 311 296 278 264 253 242 231 223 221 224 227 229 228 228 228 229 231 236 243
345 345 345 345 344 344 343 343 343 342 342 342 342 341 341 341 340 340 339 338 338 337 335 334 333 332 331 329 328 326 324 323 322 322 322 322 322 323 327 331 331 329 328 330 332 339 344 347 344 331 318 307 292 278 261 241 222 214 215 220 223 224 223 221 220 219 221 226 234
346 346 346 345 345 345 345 344 344 344 344 344 344 343 343 343 343 342 341 341 340 339 338 337 336 335 334 333 331 330 328 326 326 327 327 325 323 326 331 336 337 335 335 338 342 348 352 355 354 339 320 315 308 297 273 239 212 203 205 212 217 218 217 215 213 212 214 221 230
348 347 347 347 346 346 346 346 346 346 346 346 345 345 345 345 344 344 344 343 342 341 341 340 339 339 338 337 336 334 332 331 331 332 332 329 326 329 335 340 343 341 339 341 347 354 359 4 6 353 328 323 320 314 303 271 208 188 188 197 207 212 213 210 207 206 210 218 229
349 349 348 348 348 348 347 347 347 347 347 347 347 347 347 346 346 346 346 345 345 344 343 343 343 342 342 341 340 339 337 336 337 338 337 334 330 332 338 344 349 350 347 346 351 358 4 11 14 7 345 331 329 332 338 353 36 116 143 154 169 186 197 200 199 198 201 210 225
351 350 350 349 349 349 349 349 349 349 349 349 348 348 348 348 348 348 348 347 347 347 346 346 346 346 345 345 344 343 342 342 342 343 342 339 334 334 340 347 356 359 358 354 356 1 7 13 16 14 3 341 330 333 342 357 25 70 110 124 130 138 153 169 178 182 188 199 219
352 351 351 351 351 350 350 350 350 350 350 350 350 349 349 349 349 349 350 350 350 349 349 349 349 349 349 349 348 348 347 347 347 348 347 344 338 337 341 349 360 5 4 360 1 6 11 15 17 14 6 345 324 323 331 341 1 67 111 121 123 125 131 144 155 164 173 191 223
353 353 352 352 352 352 352 351 351 351 351 351 351 351 351 351 351 351 352 352 352 352 352 353 353 353 353 354 353 353 353 352 352 353 353 349 344 341 343 349 358 3 3 2 5 9 13 17 17 12 2 344 326 323 328 332 338 56 124 129 129 127 128 139 148 156 166 192 248
354 353 353 353 353 353 352 352 352 352 352 352 352 352 352 353 353 353 354 354 354 355 355 356 357 357 358 358 358 358 358 357 356 357 357 355 351 346 345 348 353 358 1 4 7 12 15 18 19 15 5 351 336 330 330 329 331 359 131 138 136 135 138 152 162 167 175 231 305
355 354 354 354 354 353 353 353 353 353 353 353 353 353 353 354 354 355 356 356 357 357 357 358 359 1 1 2 1 1 1 0 359 359 359 359 357 353 351 350 351 354 358 2 7 12 16 19 22 22 15 4 352 342 334 326 325 331 97 147 146 145 150 169 191 202 217 318 331
356 355 355 354 354 354 354 354 354 354 353 354 354 354 355 355 356 356 357 358 358 358 359 359 1 2 3 3 3 3 2 2 1 1 1 1 1 360 357 355 353 353 354 356 0 7 13 18 23 26 23 13 1 347 333 319 314 314 312 291 173 148 144 183 237 250 262 293 321
356 356 355 355 355 355 355 355 355 354 354 355 355 356 356 357 357 357 358 358 359 359 359 360 1 2 4 4 3 2 3 3 3 2 2 3 5 4 1 358 355 352 351 352 354 359 7 15 19 20 17 7 352 335 320 308 303 302 301 300 297 308 346 317 279 266 264 273 294
357 356 356 355 355 355 355 355 355 355 356 356 356 357 357 357 358 358 358 359 359 359 359 359 360 2 3 3 2 1 2 4 5 4 3 5 7 7 5 1 357 354 351 350 351 352 359 7 10 9 4 349 333 317 304 297 294 293 292 291 288 288 291 288 270 261 258 260 268
357 357 356 356 356 356 356 356 356 356 357 357 357 358 358 358 358 358 359 359 359 359 359 359 360 2 3 4 2 2 3 6 7 6 5 7 10 11 9 5 0 357 355 352 351 350 351 354 358 359 355 343 328 313 301 296 293 292 291 288 283 277 273 269 262 257 256 257 258